JUGNU (37839 NORAD) Tracking and Keplerian Element Data

This shows tracking and keplerian element data for the satellite.

Feedback or suggestion? Click here.




ElementValue
Catalog37839
NameJUGNU
Epoch Orbit57443
Epoch Day325.13620618
Epoch Year2022
RAAN305.0883
Inclination19.9619
Eccentricity0.001912
Argument of Perigee84.7782
Mean Anonmoly355.2391
Mean Motion14.12835055
Decay Rate4.16E-06
L11 37839U 11058B 22325.13620618 .00000416 00000+0 79327-4 0 9998
L22 37839 19.9619 305.0883 0019120 84.7782 355.2391 14.12835055574438



Live tracking and technical data element details for JUGNU (NORAD 37839). JUGNU can be tracked NOW for your location showing map with azimuth and elevation plus other details from your city location.







IsCatalogInMostPopularTable: catalog: 37839, numindb: 368
Update: records affected: 1



GetName: 37839 JUGNU

Hit Count: updated at: Fri, 02 Dec 2022 13:11:42 GMT